Torna al catalogo

METEOR 1-16 DEB

AttivoPO
NORAD 42999·DEBRIS·🇷🇺 Russia

Lanciato Mar 5, 1974 da Plesetsk Cosmodrome

Loading…

Prossimi Passaggi (prossime 24 ore)

TLE

In scadenzaSource: Space-Track

Epoca: Sep 10, 2026, 06:50 UTC

1 42999U 74011C   26253.28534667  .00006291  00000-0  17853-2 0  9999
2 42999  81.2302 258.1920 0034749  33.1650 327.1708 14.45020803527068

Traccia METEOR 1-16 DEB in tempo reale con AllMySat

Download on the App Store